LHA744 EDDM-EDDH

Flight info

Callsign LHA744
Flight time 1h 9m
Altitude 36000
Route INPUD2N/26R INPUD Y102 UPALA M726 LASTO DCT ABGUS DCT DIRBO/N0387F230 T902 RARUP RARUP3D
Aircraft A20N/M-SDE1E2FGIRWYZE3/S

Departure

Time 2026-05-05 21:05
Airport Munich Airport (EDDM)

Arrival

Time 2026-05-05 22:15
Airport Hamburg Helmut Schmidt Airport (EDDH)
Time Latitude Longitude Altitude Speed Heading
2026-05-05 20:37 48.35351 11.79303 1462 ft 0 kts 261°
2026-05-05 20:38 48.35351 11.79304 1467 ft 0 kts 261°
2026-05-05 20:53 48.35354 11.79329 1459 ft 4 kts 261°
2026-05-05 20:53 48.35358 11.79369 1457 ft 4 kts 259°
2026-05-05 20:53 48.35364 11.79409 1461 ft 4 kts 255°
2026-05-05 20:54 48.35373 11.79446 1459 ft 4 kts 234°
2026-05-05 20:54 48.35388 11.79465 1458 ft 2 kts 174°
2026-05-05 20:54 48.35389 11.79465 1458 ft 0 kts 173°
2026-05-05 20:56 48.35388 11.79465 1458 ft 1 kts 173°
2026-05-05 20:56 48.35352 11.79471 1476 ft 9 kts 173°
2026-05-05 20:56 48.35278 11.79484 1459 ft 15 kts 173°
2026-05-05 20:56 48.35147 11.79507 1467 ft 20 kts 173°
2026-05-05 20:57 48.35003 11.79533 1465 ft 22 kts 173°
2026-05-05 20:57 48.34851 11.79560 1463 ft 20 kts 173°
2026-05-05 20:57 48.34797 11.79657 1457 ft 15 kts 84°
2026-05-05 20:57 48.34809 11.79814 1463 ft 16 kts 83°
2026-05-05 20:58 48.34822 11.79979 1467 ft 16 kts 83°
2026-05-05 20:58 48.34835 11.80149 1463 ft 17 kts 83°
2026-05-05 20:58 48.34837 11.80328 1458 ft 17 kts 112°
2026-05-05 20:58 48.34755 11.80394 1467 ft 4 kts 173°
2026-05-05 20:59 48.34725 11.80399 1466 ft 5 kts 173°
2026-05-05 20:59 48.34693 11.80405 1460 ft 1 kts 173°
2026-05-05 20:59 48.34665 11.80411 1465 ft 6 kts 173°
2026-05-05 20:59 48.34644 11.80415 1462 ft 0 kts 173°
2026-05-05 21:00 48.34639 11.80415 1465 ft 1 kts 173°
2026-05-05 21:00 48.34631 11.80417 1462 ft 0 kts 173°
2026-05-05 21:00 48.34627 11.80418 1463 ft 1 kts 173°
2026-05-05 21:01 48.34601 11.80423 1465 ft 8 kts 173°
2026-05-05 21:01 48.34523 11.80433 1464 ft 14 kts 181°
2026-05-05 21:01 48.34469 11.80344 1465 ft 11 kts 264°
2026-05-05 21:01 48.34469 11.80338 1466 ft 0 kts 265°
2026-05-05 21:04 48.34468 11.80335 1466 ft 2 kts 264°
2026-05-05 21:04 48.34453 11.80108 1468 ft 51 kts 263°
2026-05-05 21:05 48.34387 11.79259 1464 ft 109 kts 263°
2026-05-05 21:05 48.34282 11.77900 1470 ft 151 kts 263°
2026-05-05 21:05 48.34161 11.76188 1731 ft 168 kts 264°
2026-05-05 21:05 48.34039 11.74461 2457 ft 165 kts 263°
2026-05-05 21:06 48.33917 11.72770 3180 ft 161 kts 264°
2026-05-05 21:06 48.33794 11.71106 3886 ft 159 kts 264°
2026-05-05 21:06 48.33669 11.69466 4610 ft 156 kts 264°
2026-05-05 21:06 48.33544 11.67810 5328 ft 163 kts 264°
2026-05-05 21:07 48.33747 11.66126 6042 ft 176 kts 298°
2026-05-05 21:07 48.34735 11.64923 6743 ft 196 kts 338°
2026-05-05 21:07 48.36184 11.64456 6996 ft 234 kts 346°
2026-05-05 21:07 48.37946 11.64032 7093 ft 276 kts 348°
2026-05-05 21:08 48.39880 11.63620 7994 ft 284 kts 348°
2026-05-05 21:08 48.41839 11.63214 9202 ft 277 kts 347°
2026-05-05 21:08 48.43688 11.62832 10627 ft 269 kts 347°
2026-05-05 21:08 48.45621 11.62405 11110 ft 293 kts 347°
2026-05-05 21:09 48.47681 11.61929 11864 ft 304 kts 347°
2026-05-05 21:09 48.49795 11.61436 12825 ft 310 kts 347°
2026-05-05 21:09 48.51940 11.60935 13787 ft 315 kts 348°
2026-05-05 21:09 48.54121 11.60425 14650 ft 320 kts 348°
2026-05-05 21:10 48.56331 11.59894 15502 ft 324 kts 345°
2026-05-05 21:10 48.58494 11.58940 16079 ft 338 kts 336°
2026-05-05 21:10 48.60767 11.57636 16369 ft 361 kts 336°
2026-05-05 21:10 48.63188 11.56220 16661 ft 383 kts 336°
2026-05-05 21:11 48.65746 11.54719 17319 ft 394 kts 336°
2026-05-05 21:11 48.68289 11.53233 18112 ft 400 kts 336°
2026-05-05 21:11 48.70909 11.51709 18812 ft 406 kts 336°
2026-05-05 21:11 48.73558 11.50174 19526 ft 411 kts 336°
2026-05-05 21:12 48.76252 11.48614 20246 ft 417 kts 336°
2026-05-05 21:12 48.78993 11.47025 20965 ft 422 kts 336°
2026-05-05 21:12 48.81758 11.45422 21673 ft 427 kts 336°
2026-05-05 21:12 48.84552 11.43799 22382 ft 433 kts 336°
2026-05-05 21:13 48.87376 11.42158 23164 ft 435 kts 336°
2026-05-05 21:13 48.90219 11.40502 23799 ft 439 kts 336°
2026-05-05 21:13 48.93083 11.38826 24361 ft 443 kts 336°
2026-05-05 21:13 48.95958 11.37140 24885 ft 447 kts 336°
2026-05-05 21:14 48.98870 11.35431 25394 ft 450 kts 336°
2026-05-05 21:14 49.01793 11.33714 25858 ft 454 kts 336°
2026-05-05 21:14 49.04767 11.31967 26307 ft 457 kts 336°
2026-05-05 21:14 49.07752 11.30212 26733 ft 460 kts 336°
2026-05-05 21:15 49.10747 11.28453 27129 ft 463 kts 336°
2026-05-05 21:15 49.13725 11.26704 27509 ft 466 kts 336°
2026-05-05 21:15 49.16798 11.24896 27856 ft 468 kts 336°
2026-05-05 21:15 49.19842 11.23318 28280 ft 470 kts 343°
2026-05-05 21:16 49.23066 11.22384 28680 ft 473 kts 353°
2026-05-05 21:16 49.26353 11.22179 29088 ft 474 kts 360°
2026-05-05 21:16 49.29651 11.22223 29525 ft 474 kts 359°
2026-05-05 21:16 49.32948 11.22256 29964 ft 474 kts 359°
2026-05-05 21:17 49.36248 11.22278 30349 ft 473 kts 359°
2026-05-05 21:17 49.39536 11.22298 30746 ft 473 kts 359°
2026-05-05 21:17 49.42828 11.22317 31171 ft 472 kts
2026-05-05 21:17 49.46101 11.22338 31674 ft 469 kts
2026-05-05 21:18 49.49353 11.22365 32164 ft 466 kts
2026-05-05 21:18 49.52593 11.22395 32616 ft 465 kts
2026-05-05 21:18 49.55820 11.22423 33035 ft 464 kts
2026-05-05 21:18 49.59047 11.22441 33462 ft 463 kts
2026-05-05 21:19 49.62262 11.22447 33785 ft 464 kts 360°
2026-05-05 21:19 49.65516 11.22445 33840 ft 471 kts
2026-05-05 21:19 49.72183 11.22443 33846 ft 487 kts
2026-05-05 21:20 49.79067 11.22467 33835 ft 502 kts
2026-05-05 21:20 49.86044 11.22510 33827 ft 498 kts
2026-05-05 21:21 49.92966 11.22548 33834 ft 498 kts
2026-05-05 21:21 49.96369 11.22564 34755 ft 479 kts
2026-05-05 21:21 49.99667 11.22582 35528 ft 470 kts
2026-05-05 21:22 50.02925 11.22599 35965 ft 467 kts 360°
2026-05-05 21:22 50.06143 11.22618 36279 ft 466 kts 360°
2026-05-05 21:22 50.09400 11.22641 36559 ft 466 kts 359°
2026-05-05 21:22 50.12637 11.22664 36804 ft 466 kts 360°
2026-05-05 21:23 50.15880 11.22688 37033 ft 466 kts 359°
2026-05-05 21:23 50.19127 11.22710 37277 ft 466 kts 359°
2026-05-05 21:23 50.22371 11.22727 37518 ft 466 kts 359°
2026-05-05 21:23 50.25629 11.22739 37749 ft 467 kts 359°
2026-05-05 21:24 50.28876 11.22752 37987 ft 467 kts 359°
2026-05-05 21:24 50.32122 11.22769 38221 ft 467 kts 359°
2026-05-05 21:24 50.35357 11.22786 38434 ft 467 kts 357°
2026-05-05 21:24 50.38597 11.22432 38577 ft 467 kts 353°
2026-05-05 21:25 50.41829 11.21947 38735 ft 467 kts 352°
2026-05-05 21:25 50.45065 11.21460 38899 ft 467 kts 352°
2026-05-05 21:25 50.48303 11.20976 39082 ft 466 kts 352°
2026-05-05 21:25 50.51531 11.20490 39269 ft 466 kts 352°
2026-05-05 21:26 50.54756 11.19998 39477 ft 465 kts 352°
2026-05-05 21:26 50.57958 11.19510 39659 ft 464 kts 352°
2026-05-05 21:26 50.61185 11.19018 39775 ft 465 kts 352°
2026-05-05 21:26 50.64393 11.18529 39799 ft 465 kts 352°
2026-05-05 21:27 50.70845 11.17540 39801 ft 464 kts 352°
2026-05-05 21:27 50.77279 11.16554 39806 ft 467 kts 352°
2026-05-05 21:28 50.83812 11.15548 39809 ft 476 kts 352°
2026-05-05 21:28 50.90432 11.14533 39809 ft 484 kts 352°
2026-05-05 21:29 50.97172 11.13510 39809 ft 488 kts 352°
2026-05-05 21:29 51.03933 11.12470 39809 ft 488 kts 352°
2026-05-05 21:30 51.10707 11.11417 39810 ft 489 kts 352°
2026-05-05 21:30 51.17508 11.10518 39813 ft 491 kts 354°
2026-05-05 21:31 51.24353 11.10042 39825 ft 492 kts 356°
2026-05-05 21:31 51.31151 11.09670 39835 ft 491 kts 355°
2026-05-05 21:32 51.37977 11.09192 39838 ft 491 kts 354°
2026-05-05 21:32 51.44796 11.08635 39853 ft 490 kts 354°
2026-05-05 21:33 51.51610 11.08080 39854 ft 491 kts 355°
2026-05-05 21:33 51.58423 11.07546 39861 ft 489 kts 354°
2026-05-05 21:34 51.65215 11.07021 39859 ft 488 kts 354°
2026-05-05 21:34 51.70849 11.06587 39859 ft 487 kts 354°
2026-05-05 21:35 51.77603 11.06067 39868 ft 486 kts 354°
2026-05-05 21:35 51.84359 11.05540 39869 ft 485 kts 354°
2026-05-05 21:36 51.91078 11.04722 39871 ft 483 kts 351°
2026-05-05 21:36 51.97726 11.03226 39871 ft 482 kts 348°
2026-05-05 21:37 52.04345 11.01588 39877 ft 481 kts 349°
2026-05-05 21:37 52.10980 11.00107 39875 ft 481 kts 349°
2026-05-05 21:38 52.17613 10.98719 39881 ft 480 kts 349°
2026-05-05 21:38 52.24245 10.97320 39883 ft 480 kts 349°
2026-05-05 21:39 52.30868 10.95891 39892 ft 480 kts 349°
2026-05-05 21:39 52.37484 10.94449 39899 ft 480 kts 349°
2026-05-05 21:40 52.44101 10.93006 39888 ft 480 kts 349°
2026-05-05 21:40 52.50718 10.91561 39903 ft 480 kts 349°
2026-05-05 21:41 52.57339 10.90125 39900 ft 480 kts 349°
2026-05-05 21:41 52.63951 10.88678 39899 ft 479 kts 349°
2026-05-05 21:42 52.70521 10.87220 39904 ft 480 kts 349°
2026-05-05 21:42 52.77133 10.85755 39914 ft 480 kts 349°
2026-05-05 21:43 52.83746 10.84303 39913 ft 479 kts 349°
2026-05-05 21:43 52.90361 10.82913 39913 ft 479 kts 350°
2026-05-05 21:44 52.96992 10.81597 39914 ft 479 kts 350°
2026-05-05 21:44 53.03615 10.80278 39919 ft 479 kts 350°
2026-05-05 21:45 53.10232 10.78936 39920 ft 479 kts 349°
2026-05-05 21:45 53.16845 10.77575 39919 ft 479 kts 349°
2026-05-05 21:46 53.23453 10.76198 39926 ft 479 kts 349°
2026-05-05 21:46 53.30066 10.74826 39936 ft 478 kts 349°
2026-05-05 21:47 53.36668 10.73456 39937 ft 478 kts 349°
2026-05-05 21:47 53.43260 10.72091 39931 ft 477 kts 349°
2026-05-05 21:48 53.49849 10.70704 39933 ft 477 kts 349°
2026-05-05 21:48 53.56429 10.69320 39942 ft 477 kts 349°
2026-05-05 21:49 53.63006 10.67944 39942 ft 476 kts 349°
2026-05-05 21:49 53.69576 10.66584 39942 ft 474 kts 349°
2026-05-05 21:50 53.76126 10.65238 39946 ft 474 kts 349°
2026-05-05 21:50 53.82677 10.63906 39960 ft 474 kts 349°
2026-05-05 21:51 53.89231 10.62584 39960 ft 474 kts 349°
2026-05-05 21:51 53.95782 10.61259 39961 ft 474 kts 349°
2026-05-05 21:52 54.05619 10.59271 39983 ft 475 kts 349°
2026-05-05 21:53 54.12190 10.57947 39996 ft 477 kts 349°
2026-05-05 21:53 54.18735 10.56626 39997 ft 477 kts 349°
2026-05-05 21:54 54.25321 10.55295 40000 ft 477 kts 349°
2026-05-05 21:54 54.31956 10.53966 40015 ft 477 kts 349°
2026-05-05 21:55 54.38556 10.52691 40015 ft 477 kts 349°
2026-05-05 21:55 54.45113 10.51425 40017 ft 477 kts 349°
2026-05-05 21:56 54.51714 10.50148 40020 ft 477 kts 349°
2026-05-05 21:56 54.58317 10.48878 40038 ft 476 kts 349°
2026-05-05 21:57 54.64915 10.47651 40038 ft 475 kts 349°
2026-05-05 21:57 54.71337 10.45907 39391 ft 457 kts 334°
2026-05-05 21:57 54.74104 10.43390 38544 ft 444 kts 316°
2026-05-05 21:58 54.76220 10.39688 37732 ft 425 kts 299°
2026-05-05 21:58 54.77532 10.35239 36868 ft 409 kts 281°
2026-05-05 21:58 54.77953 10.30522 35939 ft 396 kts 264°
2026-05-05 21:58 54.77470 10.25911 35005 ft 387 kts 246°
2026-05-05 21:59 54.76143 10.21928 34082 ft 381 kts 229°
2026-05-05 21:59 54.74123 10.18981 32989 ft 383 kts 212°
2026-05-05 21:59 54.71612 10.17322 31650 ft 395 kts 195°
2026-05-05 21:59 54.68774 10.17107 30146 ft 412 kts 181°
2026-05-05 22:00 54.65896 10.17566 28428 ft 423 kts 179°
2026-05-05 22:00 54.62986 10.18069 27223 ft 418 kts 179°
2026-05-05 22:00 54.60106 10.18559 26122 ft 413 kts 179°
2026-05-05 22:00 54.57268 10.19028 25052 ft 407 kts 179°
2026-05-05 22:01 54.54464 10.19441 24013 ft 402 kts 179°
2026-05-05 22:01 54.51691 10.19814 22919 ft 398 kts 179°
2026-05-05 22:01 54.48950 10.20171 21810 ft 393 kts 179°
2026-05-05 22:01 54.46236 10.20519 20771 ft 388 kts 179°
2026-05-05 22:02 54.43562 10.20859 19793 ft 384 kts 179°
2026-05-05 22:02 54.40915 10.21192 18837 ft 379 kts 179°
2026-05-05 22:02 54.38299 10.21517 17847 ft 375 kts 179°
2026-05-05 22:02 54.35708 10.21831 16805 ft 370 kts 179°
2026-05-05 22:03 54.33169 10.21829 15917 ft 358 kts 192°
2026-05-05 22:03 54.30848 10.20678 15161 ft 343 kts 208°
2026-05-05 22:03 54.28837 10.18556 14281 ft 337 kts 216°
2026-05-05 22:03 54.26896 10.16327 13383 ft 334 kts 216°
2026-05-05 22:04 54.24979 10.14134 12465 ft 330 kts 215°
2026-05-05 22:04 54.23076 10.11969 11663 ft 325 kts 215°
2026-05-05 22:04 54.21228 10.09869 11133 ft 314 kts 215°
2026-05-05 22:04 54.19409 10.07798 10646 ft 314 kts 215°
2026-05-05 22:05 54.17651 10.05797 10347 ft 296 kts 215°
2026-05-05 22:05 54.15955 10.03875 10049 ft 282 kts 215°
2026-05-05 22:05 54.14326 10.02035 9841 ft 280 kts 215°
2026-05-05 22:05 54.12704 10.00204 9708 ft 280 kts 215°
2026-05-05 22:06 54.11082 9.98371 9578 ft 280 kts 215°
2026-05-05 22:06 54.09463 9.96542 9443 ft 279 kts 215°
2026-05-05 22:06 54.07855 9.94726 9312 ft 281 kts 215°
2026-05-05 22:06 54.06227 9.92890 9103 ft 281 kts 215°
2026-05-05 22:07 54.04590 9.91043 8644 ft 284 kts 214°
2026-05-05 22:07 54.02952 9.89198 8266 ft 283 kts 214°
2026-05-05 22:07 54.01302 9.87348 7934 ft 282 kts 214°
2026-05-05 22:07 53.99673 9.85521 7598 ft 280 kts 214°
2026-05-05 22:08 53.98051 9.83704 7265 ft 279 kts 214°
2026-05-05 22:08 53.96433 9.81889 6931 ft 278 kts 214°
2026-05-05 22:08 53.94823 9.80085 6682 ft 274 kts 214°
2026-05-05 22:08 53.93257 9.78334 6550 ft 265 kts 213°
2026-05-05 22:09 53.91632 9.76983 6433 ft 257 kts 194°
2026-05-05 22:09 53.89890 9.76766 6306 ft 249 kts 172°
2026-05-05 22:09 53.88223 9.77638 5719 ft 258 kts 152°
2026-05-05 22:09 53.86582 9.79092 5089 ft 271 kts 151°
2026-05-05 22:10 53.84957 9.80530 4869 ft 256 kts 151°
2026-05-05 22:10 53.83384 9.81914 4273 ft 256 kts 150°
2026-05-05 22:10 53.81798 9.83304 3627 ft 258 kts 149°
2026-05-05 22:10 53.80199 9.84702 3047 ft 257 kts 149°
2026-05-05 22:11 53.78667 9.86032 2931 ft 237 kts 149°
2026-05-05 22:11 53.77247 9.87262 2713 ft 223 kts 148°
2026-05-05 22:11 53.75902 9.88432 2442 ft 212 kts 147°
2026-05-05 22:11 53.74618 9.89550 2183 ft 201 kts 147°
2026-05-05 22:12 53.73419 9.90591 1901 ft 188 kts 146°
2026-05-05 22:12 53.72305 9.91557 1641 ft 171 kts 146°
2026-05-05 22:12 53.71289 9.92439 1412 ft 159 kts 146°
2026-05-05 22:12 53.70320 9.93284 1197 ft 155 kts 147°
2026-05-05 22:13 53.69383 9.94097 1021 ft 147 kts 147°
2026-05-05 22:13 53.68479 9.94883 788 ft 145 kts 149°
2026-05-05 22:13 53.67595 9.95650 586 ft 142 kts 149°
2026-05-05 22:13 53.66717 9.96415 389 ft 142 kts 149°
2026-05-05 22:14 53.65834 9.97185 208 ft 143 kts 150°
2026-05-05 22:14 53.64947 9.97943 67 ft 137 kts 149°
2026-05-05 22:14 53.64200 9.98598 54 ft 100 kts 154°
2026-05-05 22:14 53.63724 9.99001 47 ft 62 kts 152°
2026-05-05 22:15 53.63358 9.99319 47 ft 55 kts 155°
2026-05-05 22:15 53.63025 9.99604 45 ft 52 kts 150°
2026-05-05 22:15 53.62880 9.99729 45 ft 14 kts 156°
2026-05-05 22:15 53.62880 9.99862 46 ft 13 kts 63°
2026-05-05 22:16 53.62922 10.00000 48 ft 14 kts 63°
2026-05-05 22:16 53.62987 10.00136 48 ft 16 kts 30°
2026-05-05 22:16 53.63077 10.00232 48 ft 13 kts 32°
2026-05-05 22:16 53.63110 10.00322 49 ft 1 kts 88°
2026-05-05 22:17 53.63111 10.00355 48 ft 4 kts 87°
2026-05-05 22:17 53.63111 10.00376 48 ft 0 kts 87°